Temp
-9 -9 -9 -9 -9 -9 -9 -9 -9 -9 -9 -9 -9 -9 -9 -9 -9 -9 -10 -10 -10 -10 -10 -10 -10 -10 -11 -11 -11 -11 -11 -11 -11 -11 -11 -11 -11 -11 -11 -11 -11 -11 -11
-10 -10 -10 -9 -9 -9 -9 -9 -9 -9 -9 -9 -9 -9 -9 -10 -10 -10 -10 -10 -11 -11 -11 -11 -11 -11 -11 -11 -11 -11 -11 -11 -11 -11 -11 -11 -11 -11 -11 -12 -11 -11 -11
-10 -10 -9 -9 -9 -9 -9 -9 -9 -9 -9 -9 -9 -10 -10 -10 -10 -11 -11 -11 -11 -11 -11 -12 -12 -12 -12 -12 -12 -12 -12 -12 -12 -12 -12 -11 -11 -11 -12 -12 -12 -12 -12
-9 -9 -9 -9 -9 -9 -9 -9 -9 -9 -9 -10 -10 -10 -11 -11 -11 -11 -11 -12 -12 -12 -12 -12 -12 -12 -12 -12 -12 -12 -12 -12 -12 -12 -12 -12 -12 -12 -12 -12 -12 -12 -12
-9 -9 -9 -9 -9 -10 -10 -9 -10 -10 -10 -10 -10 -11 -11 -11 -12 -12 -12 -12 -12 -12 -12 -12 -12 -12 -12 -12 -12 -12 -12 -12 -12 -12 -12 -12 -12 -12 -12 -12 -12 -12 -13
-10 -10 -10 -10 -10 -10 -10 -10 -11 -11 -11 -11 -11 -12 -12 -12 -12 -12 -12 -12 -12 -12 -12 -12 -12 -12 -12 -13 -13 -13 -13 -13 -12 -12 -13 -12 -13 -13 -13 -13 -13 -13 -13
-10 -10 -10 -10 -11 -11 -12 -12 -12 -12 -12 -12 -12 -12 -12 -12 -12 -12 -12 -13 -13 -12 -12 -12 -12 -12 -12 -13 -13 -12 -13 -13 -12 -13 -12 -12 -13 -12 -12 -13 -13 -13 -13
-11 -11 -12 -12 -12 -12 -11 -11 -12 -12 -12 -12 -12 -12 -12 -12 -13 -13 -13 -12 -12 -13 -13 -13 -13 -14 -14 -14 -14 -13 -13 -12 -12 -12 -12 -13 -13 -13 -13 -13 -13 -13 -13
-12 -12 -12 -12 -11 -12 -11 -12 -12 -12 -12 -12 -12 -12 -12 -13 -13 -13 -13 -13 -13 -13 -13 -13 -15 -15 -15 -16 -16 -16 -15 -14 -13 -12 -13 -13 -14 -13 -13 -14 -14 -13 -13
-12 -12 -12 -11 -11 -12 -12 -12 -12 -12 -12 -12 -12 -12 -12 -12 -12 -14 -13 -13 -12 -13 -13 -15 -15 -16 -17 -17 -18 -18 -17 -16 -15 -14 -14 -14 -13 -13 -14 -15 -14 -13 -13
-12 -12 -12 -11 -11 -12 -12 -12 -12 -12 -12 -12 -12 -12 -12 -12 -12 -12 -13 -13 -12 -13 -14 -15 -16 -17 -18 -18 -17 -17 -17 -16 -15 -15 -15 -15 -15 -15 -15 -15 -15 -14 -14
-12 -12 -11 -11 -11 -11 -12 -12 -12 -12 -13 -13 -12 -12 -12 -12 -12 -12 -12 -12 -13 -13 -14 -15 -16 -16 -17 -17 -16 -16 -16 -15 -15 -15 -15 -15 -14 -15 -15 -14 -14 -15 -14
-12 -12 -11 -11 -12 -12 -12 -12 -13 -13 -13 -13 -13 -12 -12 -12 -12 -12 -12 -13 -13 -13 -14 -15 -16 -16 -15 -15 -15 -15 -15 -15 -14 -14 -13 -14 -15 -15 -15 -15 -15 -14 -14
-13 -12 -12 -12 -13 -13 -13 -13 -13 -13 -13 -13 -13 -13 -12 -12 -12 -12 -12 -13 -13 -13 -13 -14 -15 -15 -15 -16 -16 -16 -15 -13 -14 -15 -14 -15 -15 -15 -15 -15 -15 -15 -15
-13 -12 -12 -13 -13 -13 -13 -13 -13 -13 -13 -13 -13 -12 -12 -12 -12 -13 -13 -13 -13 -13 -13 -13 -14 -14 -14 -14 -15 -15 -15 -15 -15 -15 -15 -14 -15 -15 -14 -14 -14 -14 -15
-13 -13 -13 -13 -13 -13 -13 -13 -13 -13 -13 -13 -12 -13 -13 -13 -13 -13 -13 -13 -13 -13 -13 -13 -13 -13 -14 -14 -14 -14 -14 -15 -15 -15 -15 -14 -15 -16 -16 -15 -15 -15 -15
-13 -13 -13 -14 -13 -13 -13 -13 -13 -13 -13 -12 -12 -13 -13 -13 -13 -14 -13 -13 -13 -13 -13 -13 -13 -13 -13 -13 -13 -14 -14 -14 -14 -15 -15 -15 -15 -15 -15 -16 -16 -16 -16
-13 -13 -13 -13 -13 -13 -13 -13 -13 -13 -12 -12 -12 -13 -13 -13 -13 -13 -13 -13 -14 -14 -14 -14 -14 -14 -14 -14 -14 -13 -14 -14 -14 -14 -14 -15 -15 -15 -15 -15 -16 -16 -16
-13 -13 -13 -13 -13 -13 -13 -13 -13 -13 -12 -13 -13 -13 -13 -13 -13 -13 -13 -13 -14 -14 -14 -14 -14 -14 -14 -14 -14 -14 -14 -14 -14 -14 -14 -14 -14 -15 -15 -15 -15 -15 -15
-13 -13 -13 -13 -13 -13 -13 -13 -13 -13 -12 -12 -13 -13 -13 -13 -13 -13 -13 -13 -13 -14 -14 -14 -14 -14 -14 -14 -15 -15 -15 -15 -15 -15 -15 -15 -15 -15 -15 -16 -16 -16 -16
-13 -13 -13 -13 -13 -13 -12 -12 -12 -12 -12 -12 -12 -12 -13 -13 -13 -13 -13 -13 -13 -13 -14 -14 -14 -15 -15 -15 -15 -15 -15 -15 -16 -16 -15 -15 -15 -16 -16 -16 -16 -16 -16
-12 -12 -12 -12 -12 -12 -12 -12 -12 -12 -12 -12 -12 -12 -12 -13 -13 -13 -13 -13 -13 -14 -14 -14 -14 -14 -15 -15 -15 -16 -16 -16 -16 -16 -16 -16 -16 -16 -16 -16 -16 -16 -16
-12 -12 -12 -12 -12 -12 -11 -12 -12 -12 -12 -12 -12 -12 -12 -12 -12 -13 -13 -13 -13 -13 -14 -14 -14 -14 -15 -15 -15 -16 -16 -16 -16 -16 -16 -16 -16 -16 -16 -16 -16 -16 -17
-12 -11 -12 -12 -12 -12 -12 -11 -11 -11 -11 -12 -12 -12 -12 -12 -12 -12 -13 -13 -13 -14 -14 -14 -14 -14 -15 -15 -15 -16 -16 -17 -17 -17 -17 -17 -16 -16 -16 -16 -16 -17 -17
-12 -12 -12 -12 -12 -12 -12 -11 -11 -11 -11 -12 -12 -12 -12 -12 -12 -13 -13 -13 -14 -14 -14 -14 -15 -15 -15 -15 -15 -16 -16 -17 -17 -18 -17 -17 -17 -17 -16 -16 -16 -17 -17
-12 -12 -13 -12 -12 -12 -12 -12 -12 -12 -12 -12 -12 -12 -13 -13 -13 -13 -13 -14 -14 -14 -14 -15 -15 -15 -15 -16 -16 -16 -17 -17 -17 -18 -18 -17 -17 -17 -17 -17 -17 -17 -17
Height
5834 5833 5831 5829 5826 5824 5823 5822 5820 5817 5814 5812 5809 5807 5805 5802 5800 5797 5795 5792 5790 5788 5786 5785 5784 5784 5783 5783 5782 5781 5781 5781 5782 5782 5782 5783 5783 5783 5784 5784 5785 5786 5787
5828 5826 5824 5821 5818 5816 5813 5811 5809 5807 5804 5801 5798 5794 5792 5790 5788 5785 5783 5782 5779 5776 5775 5773 5771 5771 5770 5770 5770 5770 5770 5770 5771 5772 5773 5773 5773 5774 5774 5774 5775 5776 5777
5820 5817 5815 5812 5809 5805 5802 5799 5796 5794 5791 5788 5785 5782 5779 5777 5775 5774 5772 5770 5768 5765 5763 5761 5760 5757 5757 5757 5758 5758 5758 5759 5760 5761 5762 5764 5764 5765 5765 5765 5766 5767 5767
5811 5807 5804 5801 5797 5794 5790 5787 5784 5780 5777 5774 5771 5769 5767 5764 5762 5761 5759 5757 5755 5753 5751 5750 5748 5746 5746 5744 5744 5745 5746 5747 5748 5750 5751 5752 5753 5753 5754 5755 5756 5757 5757
5800 5797 5793 5790 5786 5782 5779 5776 5772 5768 5763 5760 5759 5756 5754 5752 5750 5749 5747 5746 5744 5742 5740 5737 5734 5732 5731 5730 5730 5730 5732 5735 5737 5739 5740 5739 5739 5739 5742 5742 5744 5745 5746
5789 5786 5782 5779 5775 5771 5767 5764 5760 5756 5752 5748 5746 5744 5743 5742 5741 5741 5739 5736 5733 5730 5727 5724 5721 5718 5715 5714 5714 5715 5717 5720 5723 5722 5721 5726 5725 5726 5730 5731 5733 5733 5734
5779 5775 5771 5767 5764 5760 5757 5756 5752 5748 5745 5743 5740 5738 5736 5735 5733 5731 5729 5726 5723 5719 5714 5709 5705 5701 5698 5696 5696 5698 5701 5705 5706 5703 5709 5709 5704 5711 5710 5715 5721 5722 5724
5768 5764 5761 5758 5755 5753 5750 5748 5745 5742 5739 5737 5735 5733 5731 5728 5726 5724 5721 5717 5713 5708 5702 5695 5688 5681 5676 5674 5674 5676 5681 5686 5692 5695 5699 5697 5699 5698 5701 5703 5709 5711 5713
5760 5757 5754 5751 5748 5745 5742 5740 5737 5735 5733 5730 5728 5726 5724 5722 5719 5716 5713 5707 5702 5697 5690 5678 5668 5661 5656 5653 5653 5654 5659 5666 5672 5678 5683 5686 5691 5694 5695 5698 5701 5702 5704
5753 5750 5747 5744 5741 5738 5735 5732 5730 5729 5727 5724 5721 5719 5717 5716 5714 5713 5706 5701 5694 5688 5676 5665 5658 5650 5644 5638 5635 5639 5643 5647 5654 5660 5667 5673 5680 5684 5686 5688 5690 5693 5694
5747 5744 5741 5737 5734 5731 5729 5727 5725 5724 5722 5720 5717 5715 5712 5709 5707 5705 5702 5694 5685 5678 5667 5658 5652 5644 5638 5633 5631 5631 5631 5635 5641 5649 5656 5661 5666 5671 5676 5677 5682 5684 5684
5740 5737 5735 5731 5728 5726 5725 5723 5721 5720 5719 5716 5714 5711 5708 5705 5701 5698 5694 5688 5681 5672 5661 5653 5649 5642 5636 5632 5629 5627 5625 5627 5631 5641 5647 5650 5657 5661 5665 5667 5669 5673 5674
5733 5731 5729 5726 5723 5722 5721 5721 5719 5717 5715 5712 5710 5707 5704 5701 5698 5694 5689 5683 5676 5669 5661 5652 5646 5641 5636 5633 5630 5629 5628 5624 5630 5635 5640 5649 5652 5651 5656 5657 5662 5664 5665
5726 5725 5723 5722 5720 5719 5719 5718 5716 5714 5711 5708 5706 5703 5700 5696 5693 5689 5684 5680 5673 5666 5659 5652 5645 5639 5636 5633 5632 5630 5629 5631 5635 5637 5638 5646 5648 5648 5649 5651 5652 5654 5656
5720 5719 5718 5717 5717 5716 5715 5714 5712 5710 5707 5705 5702 5699 5696 5692 5688 5683 5678 5673 5670 5664 5657 5651 5644 5640 5636 5633 5631 5630 5631 5631 5633 5634 5637 5640 5638 5641 5641 5642 5645 5645 5645
5715 5714 5713 5713 5713 5712 5711 5710 5707 5705 5703 5700 5698 5695 5691 5687 5683 5678 5673 5668 5664 5660 5656 5651 5644 5640 5637 5634 5632 5630 5629 5629 5630 5629 5630 5628 5629 5631 5631 5632 5633 5633 5633
5709 5708 5708 5708 5708 5707 5706 5704 5702 5700 5698 5695 5692 5689 5685 5682 5679 5675 5670 5665 5660 5656 5652 5648 5646 5641 5637 5634 5632 5630 5629 5628 5625 5624 5624 5625 5624 5623 5622 5622 5620 5621 5622
5704 5702 5702 5703 5703 5702 5700 5699 5696 5694 5692 5690 5687 5684 5681 5678 5675 5671 5667 5662 5658 5654 5649 5645 5642 5639 5636 5633 5631 5629 5628 5625 5623 5621 5619 5618 5618 5616 5615 5614 5612 5612 5611
5701 5699 5698 5696 5695 5694 5693 5691 5689 5687 5685 5683 5680 5678 5675 5673 5671 5667 5663 5659 5655 5651 5647 5643 5639 5635 5632 5629 5626 5624 5621 5619 5619 5617 5614 5612 5610 5608 5607 5605 5604 5603 5602
5695 5693 5692 5690 5689 5687 5685 5683 5681 5679 5677 5675 5673 5671 5668 5666 5663 5660 5656 5652 5649 5646 5642 5638 5635 5631 5627 5623 5621 5618 5616 5613 5611 5609 5607 5605 5603 5601 5599 5597 5596 5594 5592
5687 5685 5683 5681 5680 5678 5676 5674 5673 5670 5668 5666 5664 5662 5660 5658 5655 5652 5649 5645 5642 5638 5635 5632 5628 5624 5621 5617 5614 5611 5608 5605 5602 5601 5599 5597 5595 5593 5591 5588 5585 5584 5582
5677 5676 5674 5672 5670 5668 5666 5664 5663 5661 5658 5656 5654 5652 5649 5647 5645 5642 5639 5636 5634 5631 5627 5623 5620 5617 5613 5610 5606 5602 5599 5596 5593 5590 5587 5584 5582 5581 5579 5577 5575 5573 5571
5668 5666 5664 5661 5659 5657 5655 5653 5651 5649 5647 5645 5643 5642 5639 5637 5634 5632 5629 5626 5623 5620 5617 5614 5611 5608 5604 5601 5597 5593 5590 5587 5583 5579 5577 5574 5572 5569 5566 5565 5563 5561 5559
5656 5654 5653 5651 5648 5646 5642 5639 5637 5635 5634 5632 5630 5628 5626 5624 5622 5619 5617 5615 5611 5608 5606 5603 5600 5597 5593 5590 5586 5583 5579 5576 5573 5569 5566 5563 5561 5557 5555 5553 5551 5549 5548
5641 5639 5637 5635 5633 5631 5629 5626 5624 5622 5619 5616 5614 5612 5611 5609 5607 5604 5602 5600 5598 5595 5593 5590 5588 5585 5582 5578 5575 5572 5569 5565 5561 5558 5555 5551 5548 5546 5544 5541 5538 5536 5535
5625 5622 5620 5618 5615 5613 5610 5608 5607 5606 5604 5601 5597 5595 5593 5591 5589 5589 5587 5585 5583 5581 5579 5576 5574 5572 5570 5567 5564 5561 5557 5553 5550 5547 5542 5539 5536 5533 5531 5528 5526 5524 5522
Wind_Speed
27 27 30 32 34 36 37 38 40 42 44 45 47 48 49 50 51 51 52 52 52 52 53 53 52 52 52 51 50 49 48 46 45 44 43 44 45 45 46 46 45 45 43
32 34 36 39 41 43 45 46 47 48 50 52 53 54 54 54 53 52 51 50 49 49 50 51 52 52 53 52 52 52 51 50 49 47 46 45 45 45 45 47 47 47 45
39 40 42 44 46 48 50 51 52 53 53 54 54 55 55 54 51 48 46 47 48 49 48 47 48 49 49 50 50 49 51 51 50 49 49 48 47 46 46 46 47 46 45
44 46 47 48 49 51 52 52 52 53 53 53 53 53 52 52 51 50 49 47 43 42 44 46 47 47 49 51 51 50 48 46 44 44 46 50 51 49 48 46 46 46 47
47 48 49 49 48 48 50 52 54 54 55 56 55 53 50 47 45 43 39 41 44 45 47 51 52 53 54 55 56 57 54 51 48 47 46 46 51 54 51 49 48 48 47
48 47 47 48 49 49 47 44 38 37 38 39 40 40 40 35 31 36 41 44 46 49 52 53 54 57 58 59 60 59 56 54 53 52 50 45 55 54 49 50 50 55 45
47 47 45 44 41 36 30 30 31 32 28 22 22 24 26 30 37 42 44 45 47 50 52 54 56 58 60 62 64 64 62 61 58 47 51 55 48 50 55 53 50 42 55
42 38 33 32 31 30 33 33 33 33 30 29 29 30 32 37 40 40 39 40 41 46 51 55 58 61 63 65 67 68 67 63 62 62 59 54 51 61 51 41 47 58 43
27 27 28 29 32 35 36 34 33 30 30 29 30 32 32 30 27 27 33 37 40 42 49 48 45 47 50 53 55 57 63 64 65 67 65 61 51 51 56 54 48 42 40
28 27 30 33 33 34 31 28 26 26 26 28 28 21 18 17 16 18 27 31 35 40 46 36 37 36 33 34 42 45 49 58 57 62 64 58 42 42 42 42 42 41 43
29 29 30 32 32 29 25 22 21 21 16 12 13 17 19 20 22 22 25 30 36 41 41 31 33 29 23 22 19 19 30 37 42 45 52 58 57 62 55 51 47 44 53
29 29 29 31 27 26 22 18 11 11 12 15 17 17 18 20 22 24 28 33 35 40 39 28 24 17 18 10 27 14 16 26 31 31 33 42 54 52 52 50 41 41 47
28 27 27 28 21 15 12 12 13 12 13 16 17 17 17 19 22 25 28 30 34 36 36 26 22 16 11 14 14 19 17 6 9 25 43 27 47 37 44 54 43 45 47
26 26 26 22 11 10 12 13 15 16 18 19 18 18 21 23 27 30 32 30 29 32 34 32 22 17 16 14 11 9 5 13 13 12 20 34 27 25 28 33 37 35 38
25 24 25 16 13 12 13 15 17 18 19 19 19 21 24 27 31 33 32 30 28 26 29 30 30 27 24 21 18 17 15 10 18 19 18 30 31 31 28 32 35 38 42
25 24 20 17 16 16 17 18 19 20 20 20 21 24 27 29 30 29 30 28 26 25 24 24 25 26 24 23 22 19 18 17 20 24 26 31 34 34 36 38 38 39 40
20 19 18 18 18 17 20 22 22 22 21 21 23 25 23 23 24 23 25 26 26 24 23 24 22 22 23 23 22 21 20 20 21 21 25 29 31 35 36 38 38 38 40
17 15 17 19 20 22 24 25 25 24 23 24 26 24 22 21 22 24 24 26 27 27 26 24 24 24 23 22 21 21 21 21 20 20 20 25 29 31 31 31 31 33 35
22 20 19 20 23 25 26 27 27 27 26 25 24 22 22 23 23 26 26 27 27 28 29 29 28 26 25 26 25 25 24 25 25 24 24 23 23 24 26 26 27 30 33
28 28 27 27 29 30 30 30 30 29 28 27 27 25 26 26 26 27 27 27 28 30 30 31 32 32 30 28 28 27 27 28 28 29 31 30 30 30 30 31 32 33 32
34 34 33 34 34 34 32 31 30 31 30 29 29 30 31 32 33 31 31 30 31 32 34 35 34 32 32 32 31 29 30 31 31 32 33 34 36 36 37 38 39 39 38
34 34 36 36 36 36 36 35 34 35 35 35 34 35 36 37 38 36 35 38 37 38 37 37 36 34 34 34 35 34 33 33 34 35 35 35 37 39 40 42 42 42 42
39 38 38 39 39 39 41 42 41 39 39 42 43 42 43 44 45 45 43 42 43 43 42 42 40 39 38 37 37 37 38 38 38 37 39 39 39 40 40 41 42 43 43
46 47 48 48 48 48 49 49 48 48 48 49 49 50 49 49 50 50 50 49 49 48 48 46 44 42 41 41 41 41 40 42 42 41 41 41 42 42 42 42 42 43 43
52 52 51 53 54 54 56 57 57 57 56 55 55 55 54 53 54 53 53 54 53 52 51 49 48 47 46 45 45 44 44 43 44 44 44 44 44 44 44 44 44 43 43
57 57 57 57 57 58 59 61 62 62 63 62 60 58 55 54 55 54 55 55 56 57 54 52 52 50 49 49 48 46 47 46 47 47 47 45 45 44 44 44 45 44 44
Wind_Direction
286 287 287 287 286 285 284 283 282 282 281 281 280 280 278 278 278 278 278 280 279 279 279 277 276 274 272 271 269 268 268 269 270 270 269 268 268 269 269 269 268 269 270
288 288 287 286 285 285 285 284 283 282 281 280 280 279 279 279 279 279 279 278 279 279 278 279 278 276 274 271 270 270 269 269 268 269 270 270 270 269 269 270 270 268 268
288 288 288 287 287 287 286 285 284 283 282 281 281 281 281 280 280 280 278 277 277 278 279 278 276 275 274 272 270 268 269 268 268 268 268 269 270 271 271 271 271 272 271
289 289 289 288 288 287 287 287 286 285 283 282 280 278 278 278 278 278 278 279 276 275 277 277 274 272 273 273 273 271 269 269 270 270 271 270 269 268 268 270 271 271 269
290 290 291 290 291 290 290 288 287 286 284 281 279 277 277 276 275 276 276 279 279 276 279 278 273 271 269 268 269 269 269 268 269 272 273 273 267 263 264 266 267 267 268
292 292 292 292 292 291 290 290 292 294 290 286 282 279 279 278 274 278 280 281 281 280 280 278 275 273 270 267 264 262 262 263 266 262 257 253 263 263 262 266 266 266 278
292 294 295 294 292 290 289 295 297 295 300 297 288 283 276 275 276 279 281 284 286 286 284 282 279 275 271 269 266 262 259 258 262 258 262 274 271 264 252 254 261 266 259
295 294 291 291 293 290 287 290 288 286 286 287 284 280 277 278 281 286 291 292 292 291 290 288 283 277 272 267 262 258 255 252 250 254 253 260 269 257 261 260 262 275 286
293 293 292 290 290 291 295 290 283 286 290 291 290 290 290 290 291 299 301 299 298 299 299 302 294 289 283 274 266 260 255 251 248 248 250 248 257 266 261 260 266 276 278
291 293 295 294 296 297 296 296 290 289 294 297 298 298 297 297 305 303 308 310 308 310 319 309 306 299 296 288 271 259 252 247 245 244 244 245 240 246 255 264 268 267 259
290 290 298 301 298 300 300 296 297 297 300 308 314 319 319 316 317 313 316 321 321 325 331 313 312 306 314 309 286 273 262 251 250 247 247 248 248 252 254 270 267 263 260
285 290 295 305 299 299 299 297 298 302 305 313 316 319 320 321 325 330 330 332 331 337 344 330 319 337 346 326 343 339 343 246 239 225 240 250 249 253 258 261 248 256 259
284 290 293 304 307 302 288 298 302 306 311 310 314 318 320 320 323 324 325 329 335 340 349 345 335 343 345 330 340 2 3 50 202 224 206 246 251 244 263 255 262 252 256
282 292 295 299 280 274 290 299 306 311 313 315 314 313 316 318 320 319 320 322 325 336 345 354 355 344 340 340 347 340 348 334 338 334 222 230 241 267 236 231 245 265 269
283 290 291 274 260 276 291 299 309 314 315 317 318 315 316 319 319 318 320 318 320 326 336 348 354 1 4 356 347 333 327 288 284 276 255 249 267 258 258 262 262 264 264
287 288 279 250 259 272 286 294 302 310 310 314 318 321 320 321 324 324 324 322 320 319 323 333 339 345 351 353 355 355 334 308 287 283 277 274 275 269 265 262 261 264 265
294 285 262 256 258 278 288 294 302 306 307 311 314 317 318 323 321 326 332 337 334 326 321 320 322 325 328 332 335 337 335 333 329 308 289 276 276 278 276 276 274 273 272
294 283 263 263 270 279 286 293 297 297 300 306 309 310 314 317 322 328 333 337 337 339 339 330 320 315 312 309 307 307 307 308 309 310 303 284 278 277 278 280 278 275 275
289 285 276 267 267 275 282 285 287 289 295 298 299 297 298 307 313 319 323 328 330 335 337 336 334 326 315 306 300 297 294 292 290 288 286 286 285 283 281 279 279 279 277
282 282 279 276 276 278 280 281 282 286 292 295 291 287 289 295 301 305 313 318 327 328 330 329 330 326 324 319 308 301 296 292 289 288 287 284 282 280 278 278 278 277 278
279 278 277 277 278 278 278 278 281 283 286 286 281 278 281 288 294 296 303 305 311 314 317 320 321 318 320 318 317 313 305 297 295 291 286 284 282 281 279 277 277 276 275
278 279 277 278 278 276 276 277 280 283 282 279 276 276 277 279 282 285 289 296 299 303 305 307 308 311 309 310 311 308 306 306 293 289 286 286 283 282 281 280 280 280 281
281 277 275 275 273 277 279 279 279 278 279 279 280 280 280 281 282 282 282 284 288 292 294 298 300 301 303 300 302 301 303 301 301 294 289 288 289 286 281 281 280 278 277
283 282 281 280 280 279 275 274 275 275 274 274 275 277 278 280 281 281 279 280 282 284 289 290 292 295 295 296 294 297 296 301 298 299 295 291 289 288 285 281 281 283 282
280 278 276 275 276 278 279 278 276 275 274 273 274 275 277 278 280 278 279 279 279 280 281 284 286 289 290 293 292 292 294 297 297 295 297 292 288 288 287 284 283 284 284
279 279 279 276 274 274 273 273 275 276 275 275 274 275 276 276 276 277 277 277 278 279 278 279 281 283 286 289 290 292 292 290 295 295 292 292 288 286 286 284 283 283 282